Location: Buckland
(65.9785°N, 161.1281°W)
Time: 22:10:08
(UTC+00:00)

SPROUT - Pass Details

Date: 21 January 2021
Orbit: 597 x 610 km, 97.9° (Epoch: 07 March)

Event Time Altitude Azimuth Distance (km) Brightness Sun altitude
Exits shadow 06:04:28 10° 7° (N) 1,957 ? -25.0°
Drops below altitude 10° 06:05:04 10° 359° (N) 1,978 ? -25.1°
Sets 06:09:17 0° 318° (NW) 2,888 ? -25.5°
